Regional Weather Roundup
Issued by NWS

Home | Current Version | Previous Version | Graphics & Text | Print | Product List | Glossary On
Versions: 1 2 3 4 5 6 7 8 9 10 11 12 13 14 15 16 17 18 19 20 21 22 23 24 25 26 27 28 29 30 31 32 33 34 35 36 37 38 39 40 41 42 43 44 45 46 47 48 49 50
458
ASUS43 KIND 250059
RWRIN

WEATHER ROUNDUP FOR INDIANA
NATIONAL WEATHER SERVICE INDIANAPOLIS IN
800 PM EST SAT FEB 24 2018

NOTE: "FAIR" INDICATES FEW OR NO CLOUDS BELOW 12,000 FEET WITH NO
SIGNIFICANT WEATHER AND/OR OBSTRUCTIONS TO VISIBILITY.

* - STATION DOES NOT REPORT WEATHER SUCH AS PRECIPITATION OR FOG.

+ - STATION NOT QUALITY CONTROLLED BY THE NATIONAL WEATHER SERVICE.
    USE DATA WITH CAUTION...ESPECIALLY DEWPOINT AND RELATIVE
    HUMIDITY OBSERVATIONS.

INZ001>003-010>013-019-020-250200-
NORTHWEST INDIANA

CITY           SKY/WX    TMP DP  RH WIND       PRES   REMARKS
GARY /AIRPORT/ CLOUDY    46  43  87 MISG      29.72F
MONTICELLO +   CLOUDY    46  45  95 E8        29.78F

$$

LMZ046-743>745-250200-
SOUTHERN LAKE MICHIGAN

STATION/POSITION TIME  TEMP    WIND        PRES    WAVE
                       AIR SEA DIR/SP/G            HT
                 (UTC) (F)     (DEG/KT/KT) (MB)    (FT)
BURNS HARBOR     0040   44     130/ 12/ 23 1008.5F
MICHIGAN CITY    0030   42     100/ 17/ 26   N/A

$$

INZ004-005-014>016-021>024-250200-
NORTH CENTRAL INDIANA

CITY           SKY/WX    TMP DP  RH WIND       PRES   REMARKS
GOSHEN         LGT RAIN  39  36  89 E14       29.84F WCI  31
PERU/GRISSOM   CLOUDY    46  46 100 E15G22    29.78F
SOUTH BEND     CLOUDY    39  36  89 SE18G31   29.82F WCI  30
WARSAW +       CLOUDY    39  37  93 N16       29.83F FOG     WCI  30

$$

INZ006>009-017-018-025>027-250200-
NORTHEAST INDIANA

CITY           SKY/WX    TMP DP  RH WIND       PRES   REMARKS
AUBURN +       LGT RAIN  36  36 100 E10G18    29.90F WCI  28
FORT WAYNE     LGT RAIN  41  41 100 E17       29.89F FOG
KENDALLVILLE + RAIN      37  35  94 E15G21    29.88F WCI  28

$$

INZ028-029-035-036-043>045-051>053-250200-
WEST CENTRAL INDIANA

CITY           SKY/WX    TMP DP  RH WIND       PRES   REMARKS
GREENCASTLE +  RAIN      50  48  93 E6        29.77F
LAFAYETTE      CLOUDY    49  48  97 E10       29.75F
TERRE HAUTE    RAIN      52  52 100 E7        29.75F FOG

$$

INZ030>032-037>040-046>048-054>057-064-065-250200-
CENTRAL INDIANA

CITY           SKY/WX    TMP DP  RH WIND       PRES   REMARKS
COLUMBUS       LGT RAIN  50 N/A N/A E6        29.82F
INDIANAPOLIS   LGT RAIN  50  50 100 E10       29.80F
-EAGLE CREEK   LGT RAIN  51  49  92 E5        29.80F
KOKOMO +       LGT RAIN  47  46  97 E20       29.79F
MT COMFORT *+  CLOUDY    48  48 100 SE10      29.81F
SHELBYVILLE    LGT RAIN  52  49  89 E12       29.80F

$$

INZ033-034-041-042-049-050-058-059-250200-
EAST CENTRAL INDIANA

CITY           SKY/WX    TMP DP  RH WIND       PRES   REMARKS
MUNCIE         LGT RAIN  50  48  93 E14       29.83F FOG
RICHMOND +     LGT RAIN  46  46 100 E15       29.85F

$$

INZ060-061-067>069-081>083-085>088-250200-
SOUTHWEST INDIANA

CITY           SKY/WX    TMP DP  RH WIND       PRES   REMARKS
EVANSVILLE     HVY RAIN  58  58 100 W12G20    29.73S FOG
HUNTINGBURG +  RAIN      56  55  97 SE8       29.75S FOG

$$

INZ062-063-066-070>080-084-089>092-250200-
SOUTH CENTRAL AND SOUTHEAST INDIANA

CITY           SKY/WX    TMP DP  RH WIND       PRES   REMARKS
BLOOMINGTON    RAIN      52  52 100 SE10      29.75F FOG
FRENCH LICK *+ CLOUDY    54 N/A N/A E13       29.72F
SEYMOUR +      RAIN      54  54 100 SE6       29.82F

$$





USA.gov is the U.S. government's official web portal to all federal, state and local government web resources and services.